Regional Weather Roundup
Issued by NWS

Home | Current Version | Previous Version | Graphics & Text | Print | Product List | Glossary On
Versions: 1 2 3 4 5 6 7 8 9 10 11 12 13 14 15 16 17 18 19 20 21 22 23 24 25 26 27 28 29 30 31 32 33 34 35 36 37 38 39 40 41 42 43 44 45 46 47 48 49 50
030
ASUS45 KBOU 220007
RWRCO

WEATHER ROUNDUP FOR COLORADO
NATIONAL WEATHER SERVICE DENVER/BOULDER CO
600 PM MDT SUN MAY 21 2017

NOTE: "FAIR" INDICATES FEW OR NO CLOUDS BELOW 12000 FEET WITH NO
SIGNIFICANT WEATHER AND/OR OBSTRUCTIONS TO VISIBILITY.

COZ001>005-013-030-031-220100-
...NORTHWEST COLORADO...

CITY           SKY/WX    TMP DP  RH WIND       PRES   REMARKS
CRAIG          PTSUNNY   60  31  33 W15       30.19R
HAYDEN         PTSUNNY   55  34  44 N12G21    30.20R
MEEKER         PTSUNNY   58  33  39 NW8       30.19R
RABBIT EARS PA CLOUDY    36  32  87 CALM      30.34R
STEAMBOAT SPGS PTSUNNY   51  36  58 SW6       30.21R
WALDEN           N/A     37  34  87 NW10      30.32R
$$

COZ006>008-011-220100-
...WEST CENTRAL VALLEYS...

CITY           SKY/WX    TMP DP  RH WIND       PRES   REMARKS
GRAND JUNCTION FAIR      68  35  29 NW18      30.10R
MONTROSE       FAIR      66  31  27 N14G21    30.13R
EAGLE          PTSUNNY   63  28  27 W9        30.17S
RIFLE          PTSUNNY   68  26  20 W14       30.10S
DELTA          PTSUNNY   72  28  19 SW12      30.09F
NUCLA          FAIR      64  28  25 N5        30.18S
$$

COZ017>023-064>068-220100-
...SOUTHWEST COLORADO...

CITY           SKY/WX    TMP DP  RH WIND       PRES   REMARKS
DURANGO        CLOUDY    67  22  18 SW8       30.14R
CORTEZ         FAIR      70  26  19 W8        30.13S
PAGOSA SPRINGS CLOUDY    60  26  27 NW12      30.21R
TELLURIDE      PTSUNNY   52  27  37 W15G24    30.30R
WOLF CREEK PAS PTSUNNY   37  23  56 S8        30.45S
$$

COZ009-010-012-014-032>034-037-058>063-220100-
...CENTRAL COLORADO...

CITY           SKY/WX    TMP DP  RH WIND       PRES   REMARKS
ASPEN          CLOUDY    55  29  36 E6        30.20S
BUENA VISTA    PTSUNNY   60  19  20 CALM      30.18F
COPPER MTN     LGT SNOW  37  30  75 W12       30.39S
BERTHOUD PASS  CLOUDY    30  19  64 W9        30.40S WCI  22
COTTONWOOD PAS PTSUNNY   55  21  26 N3        30.28S
GUNNISON       FAIR      60  24  25 W8        30.18S
KREMMLING      PTSUNNY   59  37  44 NW6       30.24F
LEADVILLE      FAIR      48  24  39 N13       30.28S
MONARCH PASS   FAIR      37  21  52 W22G29    30.48S
SALIDA         PTSUNNY   64  20  18 S5        30.23F
SUNLIGHT       CLOUDY    41  25  52 SW9       30.37S
WILKERSON PASS CLOUDY    36  23  60 W3        30.39S
$$

COZ069>075-220100-
...SAN LUIS VALLEY/SANGRE DE CRISTO MOUNTAINS...

CITY           SKY/WX    TMP DP  RH WIND       PRES   REMARKS
ALAMOSA        PTSUNNY   65  22  19 NE13      30.14S
DEL NORTE      CLOUDY    57  27  32 W17G26    30.21R
LA VETA PASS   CLOUDY    45  30  57 N16G25    30.42S
SAGUACHE       PTSUNNY   57  27  30 W7        30.20F
$$

COZ035-036-038>040-220100-
...NORTHERN COLORADO FRONT RANGE...

CITY           SKY/WX    TMP DP  RH WIND       PRES   REMARKS
DENVER INTL AP LGT RAIN  53  44  71 N21G28    30.17R
DMNS CITY PARK   N/A     58  39  49 N17G32    30.17R
AURORA         PTSUNNY   55  43  63 N24       30.17R
FRONT RANGE AP HVY RAIN  55  45  67 NW24G38   30.19R
ERIE MUNI ARPT LGT RAIN  58  43  58 N9        30.17S
BOULDER MUN AP FAIR      55  41  58 N8        30.18S
CENTENNIAL     PTSUNNY   56  41  57 N22       30.17R
BROOMFIELD     PTSUNNY   57  41  54 N15G21    30.19
FORT COLLINS   FAIR      54  46  74 N12       30.20R
LONGMONT       PTSUNNY   59  46  61 N6        30.19F
$$

COZ041-046-047-076>085-087-088-220100-
...PIKES PEAK/PALMER DIVIDE AND SOUTHERN FOOTHILLS...

CITY           SKY/WX    TMP DP  RH WIND       PRES   REMARKS
COLO. SPRINGS  PTSUNNY   65  33  30 SW3       30.16F
A. F. ACADEMY  FAIR      59  32  35 E5        30.17R
SCHRIEVER AFB  FAIR      61  32  33 E10       30.16F
CHEYENNE MTN   FAIR      56  31  38 SW3       30.14S
ELLICOTT       FAIR     N/A N/A N/A VRB5      30.15S
FALCON         FAIR      61  32  33 E5        30.20S
FORT CARSON    FAIR      64  34  32 CALM      30.13F
LIMON          CLOUDY    61  36  39 E7        30.14S
MONUMENT HILL  LGT RAIN  54  34  47 SW9G18    30.22R
CANON CITY     NOT AVBL
WALSENBURG     FAIR      64  39  39 E7        30.13S
TRINIDAD       FAIR      68  36  30 E13       30.10S
$$

COZ042>045-048>051-090-091-220100-
...NORTHEAST COLORADO...

CITY           SKY/WX    TMP DP  RH WIND       PRES   REMARKS
GREELEY ARPT   NOT AVBL
AKRON          LGT RAIN  57  44  62 N22G30    30.15R
BURLINGTON     FAIR      67  45  45 SE8       30.12S
WRAY           PTSUNNY   68  36  30 CALM      30.10S
YUMA           NOT AVBL
STERLING       PTSUNNY   59  46  63 SW10      30.14F
HOLYOKE        NOT AVBL
FORT MORGAN    CLOUDY    56  42  59 N13       30.16S
$$

COZ086-089-092>099-220100-
...SOUTHEAST COLORADO...

CITY           SKY/WX    TMP DP  RH WIND       PRES   REMARKS
PUEBLO         FAIR      70  35  27 E9        30.07F
LA JUNTA       FAIR      72  39  30 E13G21    30.06S
LAMAR          FAIR      71  48  43 E17G24    30.04S
SPRINGFIELD      N/A     65  46  50 SE9       30.07S
$$




USA.gov is the U.S. government's official web portal to all federal, state and local government web resources and services.